Location: Complexul Astronomic Baia Mare
(47.6577°N, 23.5639°E)
Time: 05:51:09
(UTC+03:00)

ISS - Pass Details

Date: 15 March 2017
Orbit: 399 x 409 km, 51.6° (Epoch: 30 March)

Event Time Altitude Azimuth Distance (km) Brightness Sun altitude
Exits shadow 04:26:09 38° 18° (NNE) 648 -2.6 -22.7°
Drops below altitude 10° 04:28:53 10° 68° (ENE) 1,480 0.2 -22.2°
Sets 04:31:04 0° 76° (ENE) 2,342 1.5 -21.9°
